Tiempo cada hora Cavaillon

Hoy, 20 Abril, Martes

Tiempo Temperatura Precipitaciones Viento Presión Humedad
00:00 +9°C° 0 mm 1 mps 748 mmHg 68%
01:00 +9°C° 0 mm 1 mps 748 mmHg 69%
02:00 +8°C° 0 mm 1 mps 748 mmHg 71%
03:00 +8°C° 0 mm 1 mps 748 mmHg 72%
04:00 +8°C° 0 mm 1 mps 748 mmHg 72%
05:00 +9°C° 0 mm 1 mps 748 mmHg 71%
06:00 +9°C° 0 mm 1 mps 748 mmHg 70%
07:00 +11°C° 0 mm 1 mps 748 mmHg 63%
08:00 +13°C° 0 mm 1 mps 748 mmHg 57%
09:00 +15°C° 0 mm 2 mps 748 mmHg 50%
10:00 +16°C° 0 mm 2 mps 748 mmHg 46%
11:00 +17°C° 0 mm 2 mps 748 mmHg 42%
12:00 +19°C° 0 mm 3 mps 747 mmHg 37%
13:00 +18°C° 0 mm 3 mps 747 mmHg 38%
14:00 +18°C° 0 mm 4 mps 747 mmHg 39%
15:00 +16°C° 0 mm 5 mps 747 mmHg 40%
16:00 +15°C° 0 mm 4 mps 747 mmHg 47%
17:00 +14°C° 0 mm 3 mps 747 mmHg 53%
18:00 +13°C° 0 mm 3 mps 748 mmHg 60%
19:00 +13°C° 0 mm 2 mps 748 mmHg 64%
20:00 +12°C° 0 mm 1 mps 748 mmHg 68%
21:00 +12°C° 0 mm 1 mps 749 mmHg 72%
22:00 +11°C° 0 mm 1 mps 749 mmHg 73%
23:00 +11°C° 0 mm 1 mps 749 mmHg 74%

Mañana, 21 Abril, Miércoles

Tiempo Temperatura Precipitaciones Viento Presión Humedad
00:00 +11°C° 0 mm 1 mps 749 mmHg 75%
01:00 +11°C° 0 mm 1 mps 748 mmHg 75%
02:00 +11°C° 0 mm 1 mps 748 mmHg 75%
03:00 +10°C° 0 mm 2 mps 748 mmHg 75%
04:00 +11°C° 0 mm 1 mps 748 mmHg 73%
05:00 +11°C° 0 mm 1 mps 748 mmHg 72%
06:00 +12°C° 0 mm 1 mps 748 mmHg 70%
07:00 +13°C° 0 mm 2 mps 748 mmHg 66%
08:00 +14°C° 0 mm 2 mps 749 mmHg 62%
09:00 +15°C° 0 mm 2 mps 749 mmHg 58%
10:00 +14°C° 0.1 mm 3 mps 749 mmHg 56%
11:00 +16°C° 0.1 mm 3 mps 749 mmHg 55%
12:00 +17°C° 0.1 mm 4 mps 748 mmHg 53%
13:00 +15°C° 0.2 mm 4 mps 748 mmHg 57%
14:00 +14°C° 0.2 mm 3 mps 748 mmHg 61%
15:00 +13°C° 0.2 mm 3 mps 748 mmHg 65%
16:00 +14°C° 0.1 mm 2 mps 748 mmHg 67%
17:00 +14°C° 0.1 mm 2 mps 748 mmHg 68%
18:00 +13°C° 0.1 mm 1 mps 748 mmHg 70%
19:00 +13°C° 0 mm 1 mps 749 mmHg 72%
20:00 +13°C° 0 mm 1 mps 749 mmHg 74%
21:00 +11°C° 0 mm 0 mps 749 mmHg 76%
22:00 +12°C° 0 mm 1 mps 749 mmHg 77%
23:00 +11°C° 0 mm 1 mps 749 mmHg 79%

Pasado mañana, 22 Abril, Jueves

Tiempo Temperatura Precipitaciones Viento Presión Humedad
00:00 +11°C° 0 mm 1 mps 749 mmHg 80%
01:00 +11°C° 0 mm 1 mps 749 mmHg 81%
02:00 +10°C° 0 mm 1 mps 749 mmHg 83%
03:00 +10°C° 0 mm 1 mps 749 mmHg 84%
04:00 +10°C° 0 mm 1 mps 749 mmHg 82%
05:00 +10°C° 0 mm 1 mps 749 mmHg 81%
06:00 +11°C° 0 mm 1 mps 749 mmHg 80%
07:00 +13°C° 0 mm 2 mps 749 mmHg 71%
08:00 +15°C° 0 mm 2 mps 749 mmHg 62%
09:00 +17°C° 0 mm 2 mps 749 mmHg 53%
10:00 +17°C° 0 mm 2 mps 749 mmHg 50%
11:00 +18°C° 0 mm 2 mps 749 mmHg 46%
12:00 +19°C° 0 mm 2 mps 749 mmHg 43%
13:00 +18°C° 0 mm 2 mps 749 mmHg 46%
14:00 +18°C° 0 mm 2 mps 749 mmHg 48%
15:00 +18°C° 0 mm 2 mps 748 mmHg 50%
16:00 +17°C° 0 mm 2 mps 748 mmHg 55%
17:00 +16°C° 0 mm 2 mps 749 mmHg 60%
18:00 +15°C° 0 mm 2 mps 749 mmHg 65%
19:00 +14°C° 0 mm 2 mps 749 mmHg 71%
20:00 +13°C° 0 mm 1 mps 750 mmHg 77%
21:00 +12°C° 0 mm 1 mps 750 mmHg 83%
22:00 +11°C° 0 mm 1 mps 750 mmHg 84%
23:00 +11°C° 0 mm 1 mps 750 mmHg 85%

23 Abril, Viernes

Tiempo Temperatura Precipitaciones Viento Presión Humedad
00:00 +11°C° 0 mm 1 mps 750 mmHg 86%
01:00 +10°C° 0 mm 1 mps 750 mmHg 86%
02:00 +10°C° 0 mm 1 mps 750 mmHg 87%
03:00 +9°C° 0 mm 2 mps 750 mmHg 87%
04:00 +9°C° 0 mm 2 mps 750 mmHg 85%
05:00 +10°C° 0 mm 2 mps 750 mmHg 82%
06:00 +10°C° 0 mm 2 mps 750 mmHg 80%
07:00 +13°C° 0 mm 2 mps 750 mmHg 72%
08:00 +15°C° 0 mm 2 mps 751 mmHg 64%
09:00 +17°C° 0 mm 2 mps 751 mmHg 56%
10:00 +19°C° 0 mm 2 mps 751 mmHg 52%
11:00 +20°C° 0 mm 2 mps 751 mmHg 48%
12:00 +21°C° 0 mm 2 mps 750 mmHg 44%
13:00 +21°C° 0 mm 2 mps 750 mmHg 43%
14:00 +21°C° 0 mm 3 mps 750 mmHg 42%
15:00 +22°C° 0 mm 3 mps 750 mmHg 41%
16:00 +20°C° 0 mm 3 mps 750 mmHg 47%
17:00 +19°C° 0 mm 3 mps 750 mmHg 52%
18:00 +17°C° 0 mm 3 mps 750 mmHg 58%
19:00 +16°C° 0 mm 2 mps 751 mmHg 62%
20:00 +14°C° 0 mm 2 mps 751 mmHg 67%
21:00 +13°C° 0 mm 1 mps 752 mmHg 71%
22:00 +13°C° 0 mm 1 mps 752 mmHg 72%
23:00 +12°C° 0 mm 1 mps 752 mmHg 73%

24 Abril, Sábado

Tiempo Temperatura Precipitaciones Viento Presión Humedad
00:00 +12°C° 0 mm 1 mps 752 mmHg 74%
01:00 +12°C° 0 mm 1 mps 752 mmHg 75%
02:00 +11°C° 0 mm 1 mps 752 mmHg 76%
03:00 +11°C° 0 mm 1 mps 752 mmHg 77%
04:00 +12°C° 0 mm 1 mps 752 mmHg 75%
05:00 +12°C° 0 mm 1 mps 752 mmHg 74%
06:00 +13°C° 0 mm 1 mps 752 mmHg 72%
07:00 +15°C° 0 mm 1 mps 752 mmHg 65%
08:00 +18°C° 0 mm 1 mps 752 mmHg 57%
09:00 +20°C° 0 mm 1 mps 752 mmHg 49%
10:00 +20°C° 0 mm 2 mps 752 mmHg 46%
11:00 +21°C° 0 mm 3 mps 752 mmHg 42%
12:00 +22°C° 0 mm 3 mps 752 mmHg 39%
13:00 +22°C° 0 mm 4 mps 751 mmHg 40%
14:00 +22°C° 0 mm 4 mps 751 mmHg 41%
15:00 +22°C° 0 mm 5 mps 751 mmHg 42%
16:00 +20°C° 0 mm 4 mps 751 mmHg 48%
17:00 +19°C° 0 mm 3 mps 751 mmHg 55%
18:00 +17°C° 0 mm 3 mps 751 mmHg 61%
19:00 +16°C° 0 mm 2 mps 751 mmHg 67%
20:00 +15°C° 0 mm 1 mps 751 mmHg 72%
21:00 +13°C° 0 mm 1 mps 752 mmHg 78%
22:00 +13°C° 0 mm 1 mps 751 mmHg 79%
23:00 +13°C° 0 mm 1 mps 751 mmHg 79%

25 Abril, Domingo

Tiempo Temperatura Precipitaciones Viento Presión Humedad
00:00 +12°C° 0 mm 1 mps 751 mmHg 80%
01:00 +12°C° 0 mm 1 mps 751 mmHg 80%
02:00 +12°C° 0 mm 1 mps 750 mmHg 80%
03:00 +12°C° 0 mm 1 mps 750 mmHg 80%
04:00 +12°C° 0 mm 1 mps 750 mmHg 78%
05:00 +13°C° 0 mm 1 mps 750 mmHg 75%
06:00 +13°C° 0 mm 1 mps 750 mmHg 72%
07:00 +15°C° 0 mm 1 mps 750 mmHg 64%
08:00 +18°C° 0 mm 1 mps 750 mmHg 57%
09:00 +20°C° 0 mm 1 mps 750 mmHg 49%
10:00 +21°C° 0 mm 2 mps 749 mmHg 45%
11:00 +23°C° 0 mm 2 mps 749 mmHg 41%
12:00 +24°C° 0 mm 3 mps 749 mmHg 37%
13:00 +24°C° 0 mm 3 mps 749 mmHg 37%
14:00 +24°C° 0 mm 3 mps 748 mmHg 38%
15:00 +22°C° 0 mm 4 mps 748 mmHg 38%
16:00 +21°C° 0 mm 3 mps 748 mmHg 43%
17:00 +19°C° 0 mm 3 mps 748 mmHg 48%
18:00 +18°C° 0 mm 3 mps 748 mmHg 53%
19:00 +17°C° 0 mm 2 mps 748 mmHg 57%
20:00 +15°C° 0 mm 1 mps 748 mmHg 62%
21:00 +14°C° 0 mm 1 mps 748 mmHg 66%
22:00 +14°C° 0 mm 1 mps 748 mmHg 68%
23:00 +13°C° 0 mm 1 mps 748 mmHg 71%
Mostrar más

Necesitamos Su Consentimiento

Meteoprog y nuestros Proveedores de Servicios pueden almacenar y acceder a sus datos personales como cookies, identificadores de dispositivo u otras tecnologías similares de su dispositivo y procesar dichos datos para personalizar contenido y anuncios, además de ofrecer funciones de redes sociales y analizar el tráfico.

  • Almacenar y/o acceder a información en su dispositivo

    Se puede almacenar o acceder a cookies, identificadores de dispositivo u otra información de su dispositivo para los fines anteriormente indicados.

  • Anuncios y contenido personalizados, medición de anuncios y contenido, percepciones del público, y desarrollo de productos

    Los anuncios y el contenido pueden personalizarse en base a su perfil. Se pueden añadir más datos para personalizar mejor los anuncios y contenidos. Se puede medir el rendimiento de los anuncios y contenidos. Se puede obtener la percepción sobre el público que ha visto los anuncios y contenidos. Dichos datos pueden usarse para desarrollar o mejorar la experiencia del usuario, sistemas y software.

Al hacer clic en ‘Estoy De Acuerdo’ usted permitirá el uso de las cookies, identificadores de dispositivo, balizas web u otras tecnologías similares indicadas. Su configuración puede cambiarse desde el navegador de su dispositivo.

Para ciertos fines, los intereses legítimos pueden ser considerados por encima del consentimiento. Puede leer más sobre ello en nuestra Política de Privacidad y Cookies.